Location: *
(53.9002°N, 27.5624°E)
Time: 20:08:10
(UTC+00:00)

YAOGAN 6 - Pass Details

Date: 12 November 2019
Orbit: 466 x 505 km, 97.0° (Epoch: 05 December)

Event Time Altitude Azimuth Distance (km) Brightness Sun altitude
Rises 16:25:16 0° 174° (S) 2,511 6.2 -18.8°
Reaches altitude 10° 16:27:21 10° 178° (S) 1,634 5.3 -19.1°
Maximum altitude 16:30:48 59° 259° (W) 550 3.0 -19.6°
Drops below altitude 10° 16:34:17 10° 340° (NNW) 1,639 5.4 -20.2°
Sets 16:36:22 0° 344° (NNW) 2,520 6.4 -20.5°
